Location: *
(53.9002°N, 27.5624°E)
Time: 02:33:36
(UTC+00:00)

USA 116 - Pass Details

Date: 12 November 2019
Orbit: 405 x 834 km, 97.9° (Epoch: 18 November)

Event Time Altitude Azimuth Distance (km) Brightness Sun altitude
Exits shadow 16:19:32 32° 53° (NE) 1,089 4.7 -18.0°
Maximum altitude 16:21:01 44° 100° (E) 909 4.3 -18.2°
Drops below altitude 10° 16:25:33 10° 172° (S) 2,170 6.7 -18.9°
Sets 16:28:02 0° 179° (S) 3,143 7.6 -19.2°
